GFSNGP_700_spd_123.txt.gz
Wind_Speed
8 16 19 19 4 9 9 8 4 9 10 8 8 10 13 15 16 20 23 25 26 26 27 26 26 25 21 16 11 9 8 7 9 13 16 19 18 16 22 23 30 34 35 36
3 6 11 27 19 24 23 21 19 14 13 10 9 10 11 13 14 17 20 22 23 23 23 24 25 27 27 25 25 24 18 14 10 6 12 16 21 21 20 21 22 22 28 36
3 4 2 9 20 20 19 16 15 17 14 13 12 12 13 16 18 19 21 24 23 23 25 26 26 25 25 25 25 21 21 23 19 17 14 10 11 20 23 27 29 27 31 27
3 5 3 2 3 13 16 15 13 11 10 10 11 13 14 16 18 19 19 19 20 21 23 25 24 21 22 21 21 21 19 19 17 19 20 18 15 11 17 22 24 26 28 34
3 4 5 4 4 7 10 11 10 9 8 8 9 11 12 13 15 18 18 19 20 21 22 22 20 20 22 22 21 18 16 16 17 18 19 17 16 17 16 15 11 14 17 25
7 4 4 5 6 7 6 6 6 6 7 9 9 10 10 12 15 17 17 18 19 20 21 19 18 20 20 19 18 15 16 18 20 20 19 18 18 18 18 18 17 16 15 14
5 3 2 6 13 6 1 3 4 6 8 9 9 10 10 12 14 15 16 17 17 18 17 18 19 20 19 19 18 20 21 20 19 19 19 19 20 20 19 19 20 18 16 15
2 2 3 4 12 6 7 8 8 8 8 8 7 8 10 12 13 14 15 16 16 16 16 18 18 19 19 19 20 21 21 21 21 21 22 22 22 22 22 21 20 21 20 18
3 3 5 10 6 11 9 8 7 7 7 7 8 10 11 12 12 12 12 13 14 14 16 16 16 17 17 18 20 20 21 21 22 23 23 24 24 24 24 25 24 23 22 21
8 8 9 10 10 7 5 5 4 4 6 7 8 8 9 9 10 11 12 13 15 16 17 17 18 19 20 21 21 21 22 22 23 23 24 25 25 24 25 26 27 27 27 26
6 10 11 9 8 8 5 4 3 3 4 4 5 6 7 7 8 9 11 13 14 15 16 18 19 20 21 22 22 23 23 24 25 26 28 29 29 30 31 30 29 29 30 29
5 10 8 10 9 8 7 6 4 3 1 1 2 3 4 5 7 9 11 13 14 16 18 19 20 21 22 23 24 24 25 26 27 28 29 31 33 35 36 37 36 34 31 32
4 9 10 11 11 10 8 6 4 3 2 1 1 1 2 4 6 9 11 13 15 16 17 18 20 21 23 25 25 26 27 27 27 27 28 29 30 31 33 36 38 40 37 32
5 6 9 11 9 8 7 5 5 4 3 2 0 2 5 9 11 13 14 16 17 19 20 21 23 24 25 26 27 28 29 29 30 30 30 31 31 31 31 32 34 36 37 35
9 8 7 8 8 7 7 7 5 3 2 1 3 6 8 10 11 13 16 18 19 21 23 25 26 27 28 29 29 29 30 31 32 32 33 33 33 33 34 34 33 33 33 33
10 10 8 6 6 6 6 5 3 2 1 2 4 5 7 10 12 15 16 18 21 23 24 25 26 27 29 30 31 32 33 33 33 32 32 32 32 32 32 32 32 31 30 28
13 10 8 7 7 7 6 6 4 2 0 1 3 6 9 10 13 16 18 20 22 23 25 26 28 29 30 30 31 32 32 32 32 32 32 32 31 31 31 30 29 29 28 26
15 14 11 8 8 8 8 6 4 2 1 2 4 6 9 13 16 17 18 20 23 25 26 29 31 32 33 33 34 34 34 34 33 32 31 31 30 30 29 29 28 27 26 25
14 14 13 11 10 10 9 6 4 2 1 2 4 8 12 13 15 17 19 22 25 28 31 33 34 35 35 35 36 35 35 34 33 32 31 31 30 29 28 27 27 26 25 23
16 16 15 14 13 12 9 6 5 5 4 4 7 10 12 14 17 19 21 24 26 28 31 34 36 37 37 37 37 36 35 35 34 33 32 31 29 28 28 27 26 25 24 23
15 16 16 16 15 14 11 10 9 7 6 6 9 12 15 17 19 22 25 27 29 31 33 35 37 38 38 37 37 36 35 35 34 33 31 30 29 28 27 26 25 25 24 23
14 15 16 16 17 15 13 11 9 9 9 10 13 15 18 20 23 25 27 30 32 33 35 36 38 38 38 38 37 36 35 34 33 32 30 29 28 28 27 26 25 24 23 21
11 14 16 18 17 15 14 12 11 13 13 14 16 19 21 24 26 28 30 32 33 35 36 37 39 39 39 39 37 35 34 32 31 31 29 28 27 27 26 25 24 23 22 21
13 15 16 15 15 15 13 14 15 16 17 18 20 22 25 27 30 31 33 34 35 37 37 38 40 39 39 37 35 34 32 31 30 29 28 28 27 27 26 25 24 23 22 20
15 17 17 17 16 15 16 17 18 19 20 22 24 26 28 30 32 35 35 37 37 37 37 40 40 39 37 36 34 32 31 30 29 29 28 28 28 27 26 25 24 23 22 21
17 19 19 19 18 17 19 20 21 22 24 25 27 30 32 33 35 36 37 37 38 37 39 41 39 38 36 34 33 32 31 30 30 30 29 29 28 27 26 25 24 23 22 21
19 21 21 20 20 22 23 23 23 25 26 28 31 33 34 35 36 37 38 38 37 39 41 39 37 35 34 33 32 32 32 31 31 31 31 30 29 28 27 26 25 24 23 21

GFSNGP_700_spd_126.txt.gz
Wind_Speed
1 4 11 8 7 8 13 9 3 9 8 6 4 6 9 10 11 12 17 22 26 27 26 25 27 30 27 26 23 16 11 4 4 11 15 17 15 23 24 23 26 24 27 28
11 3 6 14 7 14 14 12 16 13 11 8 8 8 9 11 13 17 20 22 22 23 22 23 26 27 26 25 26 25 23 19 17 11 4 12 15 16 21 21 20 22 23 26
4 6 5 2 11 11 12 13 10 7 12 10 9 10 11 13 17 19 21 21 20 20 21 23 24 27 26 26 26 22 20 18 17 18 17 14 11 8 13 23 24 23 24 28
2 5 4 4 5 8 12 13 11 10 8 8 9 11 12 12 14 16 17 18 19 20 22 23 23 25 25 24 22 20 18 18 18 18 17 17 16 16 16 13 12 16 20 25
4 1 6 5 8 7 6 6 7 6 5 6 7 9 11 11 14 15 16 17 19 20 21 22 21 22 23 21 19 17 16 16 16 17 18 18 17 17 17 16 16 15 15 15
6 5 6 9 10 10 6 3 2 4 5 6 7 10 8 10 13 14 15 16 17 18 18 19 19 20 19 18 16 16 17 18 19 19 18 18 18 18 19 19 20 21 21 21
7 3 3 11 12 8 3 4 4 6 6 7 8 8 7 9 11 12 12 13 15 15 16 18 18 19 18 19 17 19 19 19 18 18 19 19 19 19 20 21 23 24 24 25
4 4 4 9 15 8 5 8 7 8 8 7 6 6 7 9 10 10 11 12 13 14 14 15 16 17 17 17 17 17 17 17 17 17 18 18 19 20 21 22 22 23 25 27
8 7 8 11 11 9 10 9 7 6 6 6 6 6 7 7 8 8 9 10 11 11 13 14 15 16 16 16 17 17 17 17 18 18 18 18 18 19 19 20 22 25 27 28
7 7 10 12 12 14 11 10 8 6 5 5 5 5 5 5 6 7 8 9 11 12 14 15 15 16 17 18 19 20 20 21 22 23 23 24 25 24 24 24 23 23 24 25
8 11 12 14 14 13 12 11 10 8 6 4 3 3 3 5 6 6 7 9 11 13 14 15 17 18 19 20 21 21 22 23 25 26 28 30 30 30 31 31 31 31 32 32
6 9 11 12 11 11 11 10 9 8 6 4 3 3 4 4 5 6 8 10 11 13 15 16 17 18 20 21 22 24 25 26 28 29 30 31 32 34 33 34 33 33 34 35
4 6 9 12 12 11 9 8 7 5 4 3 3 3 1 2 4 6 7 9 11 13 14 16 17 19 21 23 24 25 27 28 29 30 31 32 33 33 34 34 34 34 34 33
6 7 8 11 12 11 9 8 6 5 4 3 2 1 1 3 3 5 8 10 12 13 15 17 20 23 25 27 29 30 31 31 31 32 32 33 34 34 34 35 34 33 33 31
7 9 10 9 9 9 9 8 7 5 4 4 3 2 2 2 3 6 8 10 12 14 17 21 24 26 27 28 29 30 30 31 32 33 34 35 36 37 37 37 37 36 34 32
10 10 11 12 10 8 8 7 6 6 7 5 4 3 2 1 4 6 8 11 14 17 19 20 22 24 26 29 31 33 34 34 35 36 37 37 38 38 38 37 36 36 34 32
11 11 10 10 11 11 10 8 8 8 7 6 5 3 1 3 5 7 9 13 16 18 20 22 24 27 30 33 35 36 36 37 38 38 38 38 39 39 38 37 36 35 34 31
16 16 13 10 9 9 9 10 10 8 7 6 4 2 3 5 7 9 12 16 18 21 23 25 28 31 34 36 38 39 38 38 39 39 39 38 37 36 35 35 34 33 32 30
14 17 16 14 11 10 11 11 10 9 8 6 4 5 7 7 10 13 16 18 21 23 26 29 31 33 35 37 40 40 39 40 40 40 38 38 36 34 33 32 32 31 30 29
16 16 16 15 14 13 14 13 12 11 9 6 7 9 9 11 13 16 18 21 24 26 29 31 34 36 37 38 40 41 40 39 39 38 37 35 33 32 31 31 30 29 29 28
16 18 18 17 16 15 17 15 13 11 9 9 11 12 12 15 17 19 22 24 26 29 31 34 35 37 38 39 41 40 39 38 37 36 35 33 31 30 29 29 29 28 27 26
13 15 17 17 17 17 18 17 15 13 12 12 14 15 16 18 20 23 25 28 30 32 34 36 37 37 38 40 41 40 38 36 36 34 32 31 30 29 29 28 28 27 26 25
9 13 16 16 17 19 19 17 15 15 15 16 18 19 20 22 24 26 29 30 32 34 36 37 37 37 39 41 40 39 37 35 34 32 31 30 30 29 29 28 27 26 26 25
9 10 12 14 16 17 17 17 17 18 18 20 21 22 24 26 28 29 31 33 35 36 37 37 38 38 40 40 39 37 36 34 33 32 31 30 31 31 30 29 28 26 25 24
10 12 13 15 16 18 18 19 20 20 21 22 23 25 27 29 30 33 33 35 36 37 38 38 38 39 40 39 37 36 35 34 33 32 32 32 32 32 31 30 29 27 25 24
11 13 16 18 19 19 19 21 22 23 23 24 26 28 29 31 32 34 35 35 37 37 37 38 39 40 39 37 37 36 35 35 34 34 34 34 34 34 33 31 30 28 27 25
12 14 16 18 20 22 24 25 25 25 25 27 29 30 31 32 33 34 35 36 36 37 38 39 40 39 39 38 37 37 37 37 37 37 37 37 36 35 34 33 31 30 29 27

GFSNGP_700_spd_129.txt.gz
Wind_Speed
7 3 2 5 7 7 9 13 5 6 4 2 1 5 6 7 10 9 10 16 23 27 31 29 28 29 30 30 27 21 9 6 8 12 15 19 19 20 27 31 20 30 38 34
11 6 4 7 2 4 7 3 6 6 6 4 2 4 6 6 9 13 16 19 20 22 23 25 27 30 31 31 30 29 25 25 17 9 2 5 1 13 19 10 23 20 21 20
6 11 8 7 1 4 7 9 7 5 8 7 6 6 7 9 11 13 15 16 17 19 21 21 22 25 26 26 24 24 23 20 19 18 16 15 15 15 11 8 9 16 24 26
6 9 5 5 6 7 6 8 9 10 9 7 6 6 7 7 8 10 12 13 15 17 19 19 20 21 23 21 20 19 19 20 19 18 17 16 15 14 13 12 12 12 12 12
6 11 5 7 13 11 7 6 8 9 7 6 5 6 8 7 7 9 11 12 14 15 17 19 19 20 20 19 18 18 17 18 17 17 16 16 15 15 15 15 15 14 15 15
7 7 5 9 14 13 10 7 8 7 8 8 7 7 5 6 6 8 10 12 13 15 16 16 16 17 17 17 17 16 17 17 17 16 15 15 15 16 17 17 18 19 19 19
12 9 3 8 13 13 7 7 9 8 10 10 8 6 5 4 5 8 9 11 12 12 12 13 15 15 16 16 15 17 17 16 16 17 17 17 17 18 19 21 22 22 23 24
6 6 4 11 15 13 7 6 9 11 9 8 8 6 5 5 5 7 8 9 10 10 11 12 13 14 14 14 15 16 16 17 17 17 17 18 18 19 19 20 20 21 23 26
8 7 6 11 19 18 8 10 11 10 9 8 7 7 6 5 5 6 6 7 8 9 10 12 13 14 15 16 16 17 18 18 19 20 20 20 21 21 22 23 24 25 26 27
8 9 10 12 16 19 13 13 12 11 9 8 7 7 5 4 4 3 3 5 8 9 10 11 12 13 15 16 17 18 20 21 22 23 25 25 26 28 28 30 30 31 32 33
11 6 8 13 15 16 14 12 12 11 10 9 8 6 5 4 2 2 4 6 7 8 10 11 13 15 17 18 20 21 23 24 25 27 28 31 33 32 35 36 37 37 37 38
9 7 10 11 13 13 12 13 13 12 10 9 8 7 6 4 2 3 5 6 6 8 9 11 13 15 17 20 22 25 26 28 29 31 32 33 34 36 38 36 36 37 39 40
6 6 10 9 13 13 13 13 12 11 10 9 8 7 5 3 1 3 4 5 6 7 10 12 14 17 20 22 24 27 29 30 31 32 33 34 35 36 37 37 39 41 40 41
6 6 9 9 11 13 13 13 12 11 10 9 8 7 4 2 2 2 3 4 5 7 9 12 15 18 21 24 27 29 31 33 34 34 35 35 36 38 40 42 44 44 45 43
6 7 8 10 13 13 12 11 10 10 9 8 7 4 3 3 2 2 3 4 6 9 12 16 19 22 25 27 29 31 35 38 39 39 39 40 41 43 45 46 47 48 48 43
8 9 9 10 13 13 12 10 10 9 8 7 6 5 5 4 3 3 4 7 10 13 16 20 23 25 28 30 33 34 37 39 40 41 41 41 43 45 46 47 48 47 45 41
11 11 11 11 12 12 12 12 11 10 9 7 6 6 5 4 4 5 7 10 13 16 19 22 24 27 29 32 34 35 38 41 42 41 41 43 44 45 45 44 43 42 40 40
13 14 14 13 12 11 10 10 10 10 9 8 7 7 6 6 6 7 10 12 16 19 21 24 26 29 31 34 35 37 38 41 43 42 43 43 42 42 42 40 38 37 37 36
14 15 14 12 11 10 10 11 11 10 9 9 8 8 8 8 9 10 13 16 19 21 24 27 29 31 33 35 37 38 39 42 43 43 42 40 40 40 38 36 35 34 34 34
14 15 17 16 13 11 10 11 12 12 11 11 10 10 10 11 13 14 16 19 22 25 28 30 32 34 36 37 39 39 41 43 43 42 40 40 39 37 35 34 33 32 32 32
12 16 16 16 15 14 13 14 15 14 13 13 13 13 13 15 17 18 21 24 25 29 30 32 34 37 39 39 40 40 42 43 43 41 40 39 37 35 33 32 32 32 31 31
12 15 18 18 17 16 16 16 17 17 16 15 16 16 17 18 20 23 25 28 30 31 33 35 37 38 39 40 40 42 43 43 41 40 39 37 35 34 33 32 32 32 31 31
9 13 15 17 17 17 18 18 19 19 17 17 18 19 21 22 24 27 30 30 33 34 36 38 38 40 40 40 41 42 43 42 41 40 38 36 35 35 34 34 33 32 32 31
9 9 11 14 16 18 18 18 18 18 19 20 21 22 23 25 28 30 31 34 34 37 37 38 40 39 39 41 41 43 42 41 40 39 38 37 37 36 37 36 35 34 33 32
8 8 9 11 13 15 16 17 18 19 21 22 23 25 26 28 30 33 34 35 37 37 38 39 39 39 41 41 42 42 41 41 40 39 39 39 39 39 38 38 38 36 35 33
10 11 11 13 14 15 16 18 21 22 24 25 26 27 29 31 32 33 34 35 35 37 38 38 40 42 42 42 42 42 42 41 42 42 42 41 41 40 40 40 39 38 37 35
12 12 13 14 15 17 19 22 25 25 27 28 30 30 30 32 33 33 34 35 36 38 38 40 39 40 41 41 41 41 42 43 43 44 43 43 43 43 41 40 40 39 38 37

GFSNGP_700_spd_132.txt.gz
Wind_Speed
6 2 5 7 9 7 7 14 13 11 6 5 4 3 5 6 10 11 12 14 18 21 24 28 31 33 35 34 33 29 28 27 23 20 9 3 3 5 5 10 11 14 20 29
15 12 10 12 9 5 1 4 9 10 7 5 4 1 2 5 5 8 10 13 16 19 21 24 27 29 29 29 31 31 30 32 31 29 27 20 14 13 10 7 11 9 16 21
8 10 11 12 16 9 5 6 6 8 5 8 6 5 4 4 3 6 8 10 11 13 16 18 19 22 24 24 25 25 26 26 26 26 24 22 21 18 16 15 14 13 13 13
6 10 6 7 7 7 9 8 11 9 8 8 7 5 3 2 3 4 6 8 11 14 16 18 20 21 22 21 22 23 22 22 22 22 21 20 18 16 15 14 14 14 14 14
7 14 5 8 13 12 8 8 7 8 10 9 7 6 5 4 3 4 5 7 10 12 13 15 15 17 18 17 18 17 17 17 19 19 19 19 17 17 16 16 16 15 16 17
9 6 3 1 8 9 8 8 12 10 10 9 8 8 7 6 4 4 4 6 8 9 11 12 12 14 15 16 16 16 18 19 20 20 19 18 17 17 17 16 16 16 17 17
13 10 1 7 14 15 8 6 12 11 11 12 10 6 9 6 5 5 4 5 7 9 10 11 13 14 14 15 15 17 18 17 17 17 19 19 20 20 21 22 22 22 22 22
11 12 4 12 8 12 10 7 10 12 11 11 10 10 9 7 6 5 4 4 5 6 8 10 11 12 13 14 14 15 15 15 15 15 16 16 17 17 17 18 19 20 21 23
9 8 6 8 12 17 11 9 12 12 12 13 12 10 9 8 7 5 3 3 4 5 7 8 10 11 13 14 16 17 18 19 20 21 21 20 20 21 22 23 25 26 26 27
11 12 11 12 13 15 18 11 12 14 14 13 12 11 9 8 7 4 2 2 3 6 7 8 9 11 13 14 16 18 20 22 23 24 26 26 27 28 28 29 30 31 31 32
12 11 7 8 12 16 18 15 14 14 13 12 11 10 9 9 7 4 1 1 3 5 6 8 9 11 13 16 18 20 21 23 25 26 27 28 29 30 31 33 33 35 38 42
10 7 11 8 8 10 12 13 14 13 12 10 9 9 9 7 5 3 1 1 2 4 6 7 9 11 14 17 20 22 24 27 29 31 33 33 34 36 39 41 41 41 42 44
7 6 7 5 6 8 9 10 10 10 9 10 10 9 8 7 5 3 2 1 2 4 5 7 10 13 16 19 21 24 27 28 30 32 34 34 35 35 35 35 38 42 45 45
6 5 6 8 8 9 10 10 10 10 10 9 9 9 8 7 5 4 3 1 3 3 7 9 12 16 19 23 26 28 29 31 33 35 37 37 37 37 38 40 43 45 46 48
6 5 6 7 10 12 12 11 11 10 9 9 10 9 8 7 6 5 3 1 2 5 9 13 16 20 23 25 27 30 32 34 36 38 40 41 39 39 41 43 46 48 48 43
7 7 6 7 9 11 12 12 12 11 10 10 10 10 8 8 6 4 2 2 5 7 11 15 19 22 24 27 30 33 35 36 38 39 42 41 41 41 43 45 46 45 44 43
9 8 8 8 9 10 11 12 12 12 12 12 11 9 8 7 6 4 4 5 7 10 14 18 21 24 27 30 32 35 37 39 39 40 43 42 42 43 44 45 44 42 40 39
9 10 11 12 11 12 12 11 11 12 12 12 10 10 9 7 6 6 7 9 11 14 17 21 24 27 30 33 35 38 39 40 40 42 43 43 42 43 43 43 41 39 37 35
11 12 12 12 11 11 11 11 11 11 11 10 11 10 9 8 8 9 11 13 16 17 21 24 27 30 32 35 38 40 41 41 41 43 42 43 42 42 42 40 38 36 35 34
11 11 12 12 11 10 9 9 9 10 11 11 10 10 10 11 12 13 15 17 20 22 25 27 30 33 35 37 39 40 42 41 43 42 43 43 42 41 39 37 36 35 35 34
9 10 12 12 12 12 10 11 11 13 13 13 13 12 13 14 16 17 20 21 23 26 28 30 33 36 39 40 41 42 42 43 43 43 43 43 41 39 37 36 36 36 36 35
9 10 12 13 13 13 14 13 13 14 16 16 15 15 16 17 19 21 24 26 26 27 31 34 36 38 40 40 42 42 42 42 43 44 43 42 40 39 38 38 37 37 36 36
9 9 12 14 16 17 17 16 17 18 19 18 18 18 19 20 23 25 27 28 31 31 34 37 38 38 39 41 41 42 42 43 43 43 41 40 40 41 41 41 40 40 39 38
8 9 10 12 15 17 18 18 19 19 19 20 20 21 22 24 25 28 30 30 32 34 35 38 40 38 40 41 42 41 43 44 43 42 41 41 41 41 41 41 41 40 40 39
8 8 10 12 14 15 16 17 18 19 20 22 22 23 24 26 28 31 31 34 35 35 37 37 37 40 41 41 41 42 42 42 43 44 44 44 43 43 43 41 41 41 40 40
10 10 11 12 14 15 15 16 18 20 21 23 24 25 26 28 29 31 32 33 34 35 35 36 39 41 42 42 43 43 42 42 42 43 43 44 44 44 44 43 42 41 40 40
10 11 12 14 16 16 16 18 21 22 22 24 27 27 28 28 30 31 32 33 33 33 36 37 39 39 41 41 41 41 42 42 43 44 43 43 43 43 42 41 40 40 40 40